• Em Portugal
  • Lista de países
  • Para 7 dias
  • Temperatura da água
  • Mapas de satélite
  • Mapa do tempo
  • Widgets de tempo
  • user-avatar
    Iniciar Sessão

    Previsão horária em Bandar Abbas

    Hoje, 20 Janeiro, Sábado

    Tempo Temperatura Precipitação Vento Pressão Humidade
    00:00 +20°C° 0 mm 1 m/s 763 mmHg 65%
    01:00 +19°C° 0 mm 1 m/s 763 mmHg 67%
    02:00 +19°C° 0 mm 1 m/s 763 mmHg 67%
    03:00 +19°C° 0 mm 1 m/s 762 mmHg 67%
    04:00 +18°C° 0 mm 1 m/s 762 mmHg 71%
    05:00 +18°C° 0 mm 1 m/s 762 mmHg 71%
    06:00 +18°C° 0 mm 1 m/s 763 mmHg 71%
    07:00 +16°C° 0 mm 1 m/s 763 mmHg 70%
    08:00 +19°C° 0 mm 1 m/s 763 mmHg 64%
    09:00 +20°C° 0 mm 1 m/s 763 mmHg 57%
    10:00 +22°C° 0 mm 1 m/s 763 mmHg 51%
    11:00 +23°C° 0 mm 1 m/s 763 mmHg 48%
    12:00 +24°C° 0 mm 1 m/s 762 mmHg 44%
    13:00 +24°C° 0 mm 1 m/s 762 mmHg 41%
    14:00 +25°C° 0 mm 2 m/s 762 mmHg 40%
    15:00 +25°C° 0 mm 2 m/s 761 mmHg 40%
    16:00 +25°C° 0 mm 3 m/s 761 mmHg 39%
    17:00 +24°C° 0 mm 3 m/s 761 mmHg 44%
    18:00 +24°C° 0 mm 3 m/s 761 mmHg 48%
    19:00 +22°C° 0 mm 3 m/s 761 mmHg 53%
    20:00 +21°C° 0 mm 4 m/s 761 mmHg 56%
    21:00 +21°C° 0 mm 4 m/s 761 mmHg 59%
    22:00 +20°C° 0 mm 4 m/s 761 mmHg 63%
    23:00 +20°C° 0 mm 4 m/s 761 mmHg 65%

    Amanhã, 21 Janeiro, Domingo

    Tempo Temperatura Precipitação Vento Pressão Humidade
    00:00 +19°C° 0 mm 4 m/s 761 mmHg 68%
    01:00 +19°C° 0 mm 4 m/s 761 mmHg 70%
    02:00 +19°C° 0 mm 4 m/s 761 mmHg 72%
    03:00 +17°C° 0 mm 5 m/s 760 mmHg 74%
    04:00 +17°C° 0 mm 5 m/s 760 mmHg 77%
    05:00 +17°C° 0 mm 5 m/s 760 mmHg 78%
    06:00 +16°C° 0 mm 5 m/s 760 mmHg 79%
    07:00 +16°C° 0 mm 5 m/s 760 mmHg 80%
    08:00 +17°C° 0 mm 5 m/s 761 mmHg 71%
    09:00 +20°C° 0 mm 5 m/s 761 mmHg 62%
    10:00 +21°C° 0 mm 5 m/s 761 mmHg 54%
    11:00 +22°C° 0 mm 4 m/s 761 mmHg 47%
    12:00 +23°C° 0 mm 4 m/s 760 mmHg 39%
    13:00 +25°C° 0 mm 4 m/s 759 mmHg 32%
    14:00 +25°C° 0 mm 4 m/s 759 mmHg 28%
    15:00 +25°C° 0 mm 4 m/s 759 mmHg 25%
    16:00 +25°C° 0 mm 4 m/s 759 mmHg 21%
    17:00 +25°C° 0 mm 4 m/s 759 mmHg 23%
    18:00 +23°C° 0 mm 4 m/s 760 mmHg 26%
    19:00 +22°C° 0 mm 4 m/s 760 mmHg 28%
    20:00 +21°C° 0 mm 4 m/s 761 mmHg 29%
    21:00 +21°C° 0 mm 4 m/s 761 mmHg 29%
    22:00 +20°C° 0 mm 3 m/s 761 mmHg 30%
    23:00 +20°C° 0 mm 3 m/s 761 mmHg 31%

    Depois de amanhã, 22 Janeiro, Segunda-feira

    Tempo Temperatura Precipitação Vento Pressão Humidade
    00:00 +19°C° 0 mm 3 m/s 762 mmHg 32%
    01:00 +19°C° 0 mm 3 m/s 762 mmHg 33%
    02:00 +18°C° 0 mm 3 m/s 762 mmHg 32%
    03:00 +18°C° 0 mm 3 m/s 762 mmHg 32%
    04:00 +17°C° 0 mm 3 m/s 761 mmHg 32%
    05:00 +17°C° 0 mm 3 m/s 762 mmHg 32%
    06:00 +17°C° 0 mm 3 m/s 762 mmHg 31%
    07:00 +16°C° 0 mm 3 m/s 762 mmHg 31%
    08:00 +18°C° 0 mm 3 m/s 763 mmHg 28%
    09:00 +19°C° 0 mm 2 m/s 763 mmHg 24%
    10:00 +21°C° 0 mm 2 m/s 763 mmHg 21%
    11:00 +23°C° 0 mm 2 m/s 763 mmHg 20%
    12:00 +24°C° 0 mm 2 m/s 762 mmHg 18%
    13:00 +24°C° 0 mm 2 m/s 762 mmHg 17%
    14:00 +25°C° 0 mm 2 m/s 761 mmHg 17%
    15:00 +25°C° 0 mm 2 m/s 761 mmHg 17%
    16:00 +25°C° 0 mm 2 m/s 760 mmHg 17%
    17:00 +24°C° 0 mm 2 m/s 761 mmHg 21%
    18:00 +23°C° 0 mm 2 m/s 761 mmHg 25%
    19:00 +21°C° 0 mm 2 m/s 761 mmHg 30%
    20:00 +21°C° 0 mm 1 m/s 762 mmHg 32%
    21:00 +21°C° 0 mm 1 m/s 762 mmHg 34%
    22:00 +20°C° 0 mm 1 m/s 762 mmHg 36%
    23:00 +19°C° 0 mm 1 m/s 762 mmHg 36%

    23 Janeiro, Terça-feira

    Tempo Temperatura Precipitação Vento Pressão Humidade
    00:00 +19°C° 0 mm 1 m/s 761 mmHg 37%
    01:00 +19°C° 0 mm 1 m/s 761 mmHg 37%
    02:00 +18°C° 0 mm 1 m/s 761 mmHg 37%
    03:00 +18°C° 0 mm 1 m/s 761 mmHg 37%
    04:00 +16°C° 0 mm 0 m/s 761 mmHg 37%
    05:00 +15°C° 0 mm 0 m/s 761 mmHg 37%
    06:00 +15°C° 0 mm 0 m/s 761 mmHg 37%
    07:00 +16°C° 0 mm 1 m/s 761 mmHg 37%
    08:00 +19°C° 0 mm 1 m/s 762 mmHg 32%
    09:00 +21°C° 0 mm 1 m/s 762 mmHg 27%
    10:00 +23°C° 0 mm 1 m/s 762 mmHg 22%
    11:00 +24°C° 0 mm 1 m/s 762 mmHg 21%
    12:00 +24°C° 0 mm 1 m/s 761 mmHg 20%
    13:00 +25°C° 0 mm 1 m/s 760 mmHg 19%
    14:00 +25°C° 0 mm 1 m/s 760 mmHg 19%
    15:00 +26°C° 0 mm 2 m/s 760 mmHg 19%
    16:00 +26°C° 0 mm 2 m/s 759 mmHg 19%
    17:00 +25°C° 0 mm 2 m/s 760 mmHg 24%
    18:00 +24°C° 0 mm 2 m/s 760 mmHg 29%
    19:00 +21°C° 0 mm 2 m/s 760 mmHg 34%
    20:00 +21°C° 0 mm 2 m/s 761 mmHg 37%
    21:00 +20°C° 0 mm 2 m/s 761 mmHg 40%
    22:00 +19°C° 0 mm 2 m/s 761 mmHg 43%
    23:00 +19°C° 0 mm 2 m/s 761 mmHg 45%

    24 Janeiro, Quarta-feira

    Tempo Temperatura Precipitação Vento Pressão Humidade
    00:00 +18°C° 0 mm 2 m/s 761 mmHg 46%
    01:00 +19°C° 0 mm 1 m/s 760 mmHg 48%
    02:00 +18°C° 0 mm 1 m/s 760 mmHg 48%
    03:00 +18°C° 0 mm 1 m/s 760 mmHg 48%
    04:00 +18°C° 0 mm 1 m/s 760 mmHg 48%
    05:00 +16°C° 0 mm 1 m/s 760 mmHg 48%
    06:00 +16°C° 0 mm 1 m/s 760 mmHg 48%
    07:00 +16°C° 0 mm 1 m/s 760 mmHg 49%
    08:00 +19°C° 0 mm 1 m/s 761 mmHg 43%
    09:00 +21°C° 0 mm 1 m/s 761 mmHg 38%
    10:00 +23°C° 0 mm 1 m/s 761 mmHg 33%
    11:00 +24°C° 0 mm 2 m/s 761 mmHg 30%
    12:00 +25°C° 0 mm 2 m/s 760 mmHg 28%
    13:00 +26°C° 0 mm 3 m/s 759 mmHg 26%
    14:00 +26°C° 0 mm 3 m/s 759 mmHg 25%
    15:00 +26°C° 0 mm 3 m/s 759 mmHg 25%
    16:00 +26°C° 0 mm 4 m/s 758 mmHg 24%
    17:00 +25°C° 0 mm 4 m/s 759 mmHg 30%
    18:00 +23°C° 0 mm 4 m/s 759 mmHg 35%
    19:00 +22°C° 0 mm 4 m/s 759 mmHg 40%
    20:00 +21°C° 0 mm 3 m/s 760 mmHg 45%
    21:00 +21°C° 0 mm 3 m/s 760 mmHg 50%
    22:00 +20°C° 0 mm 3 m/s 760 mmHg 54%
    23:00 +20°C° 0 mm 2 m/s 760 mmHg 56%

    25 Janeiro, Quinta-feira

    Tempo Temperatura Precipitação Vento Pressão Humidade
    00:00 +19°C° 0 mm 2 m/s 760 mmHg 58%
    01:00 +19°C° 0 mm 2 m/s 759 mmHg 59%
    02:00 +19°C° 0 mm 1 m/s 759 mmHg 60%
    03:00 +19°C° 0 mm 1 m/s 759 mmHg 60%
    04:00 +19°C° 0 mm 1 m/s 759 mmHg 61%
    05:00 +18°C° 0 mm 1 m/s 759 mmHg 61%
    06:00 +18°C° 0 mm 1 m/s 760 mmHg 61%
    07:00 +18°C° 0 mm 1 m/s 760 mmHg 62%
    08:00 +20°C° 0 mm 1 m/s 760 mmHg 55%
    09:00 +22°C° 0 mm 1 m/s 761 mmHg 47%
    10:00 +24°C° 0 mm 1 m/s 761 mmHg 40%
    11:00 +25°C° 0 mm 1 m/s 760 mmHg 37%
    12:00 +26°C° 0 mm 1 m/s 760 mmHg 34%
    13:00 +27°C° 0 mm 1 m/s 759 mmHg 30%
    14:00 +27°C° 0 mm 2 m/s 759 mmHg 30%
    15:00 +27°C° 0 mm 2 m/s 759 mmHg 30%
    16:00 +27°C° 0 mm 2 m/s 758 mmHg 29%
    17:00 +26°C° 0 mm 2 m/s 758 mmHg 35%
    18:00 +25°C° 0 mm 2 m/s 759 mmHg 41%
    19:00 +24°C° 0 mm 2 m/s 759 mmHg 46%
    20:00 +23°C° 0 mm 2 m/s 759 mmHg 50%
    21:00 +23°C° 0 mm 2 m/s 760 mmHg 53%
    22:00 +22°C° 0 mm 1 m/s 760 mmHg 56%
    23:00 +21°C° 0 mm 1 m/s 760 mmHg 56%
    Mostrar mais